AZU3476 SBSM-SBPA

Flight info

Callsign AZU3476
Flight time N/A
Altitude 23000
Route KEXEL W18 DOPGA
Aircraft E195/M-SDE3GILORVW/S

Departure

Time N/A
Airport Santa Maria Airport (SBSM)

Arrival

Time 2026-05-08 09:22
Airport Porto Alegre-Salgado Filho International Airport (SBPA)
Time Latitude Longitude Altitude Speed Heading
2026-05-08 08:58 -29.80558 -53.08049 21805 ft 437 kts 83°
2026-05-08 08:59 -29.80455 -53.04534 22406 ft 441 kts 83°
2026-05-08 08:59 -29.80326 -53.00995 22954 ft 446 kts 82°
2026-05-08 08:59 -29.80164 -52.97364 22951 ft 462 kts 82°
2026-05-08 08:59 -29.80167 -52.93613 22957 ft 476 kts 90°
2026-05-08 09:00 -29.80592 -52.89801 22971 ft 484 kts 95°
2026-05-08 09:00 -29.81061 -52.85998 22979 ft 487 kts 94°
2026-05-08 09:00 -29.81525 -52.82126 22884 ft 488 kts 94°
2026-05-08 09:00 -29.81984 -52.78248 22818 ft 488 kts 94°
2026-05-08 09:01 -29.82441 -52.74363 22824 ft 488 kts 94°
2026-05-08 09:01 -29.82892 -52.70483 22817 ft 489 kts 94°
2026-05-08 09:01 -29.83342 -52.66592 22815 ft 489 kts 94°
2026-05-08 09:01 -29.83788 -52.62713 22818 ft 489 kts 93°
2026-05-08 09:02 -29.84234 -52.58829 22817 ft 489 kts 93°
2026-05-08 09:02 -29.84677 -52.54952 22813 ft 488 kts 93°
2026-05-08 09:02 -29.85119 -52.51071 22812 ft 488 kts 93°
2026-05-08 09:02 -29.85555 -52.47236 22807 ft 488 kts 93°
2026-05-08 09:03 -29.85993 -52.43358 22800 ft 488 kts 93°
2026-05-08 09:03 -29.86431 -52.39476 22802 ft 488 kts 93°
2026-05-08 09:03 -29.86867 -52.35594 22806 ft 488 kts 93°
2026-05-08 09:03 -29.87303 -52.31717 22807 ft 488 kts 92°
2026-05-08 09:04 -29.87736 -52.27835 22799 ft 488 kts 92°
2026-05-08 09:04 -29.88170 -52.23956 22795 ft 488 kts 92°
2026-05-08 09:04 -29.88481 -52.20082 22820 ft 482 kts 85°
2026-05-08 09:04 -29.88497 -52.16213 22809 ft 483 kts 85°
2026-05-08 09:05 -29.88551 -52.12344 22794 ft 483 kts 85°
2026-05-08 09:05 -29.88608 -52.08475 22793 ft 483 kts 85°
2026-05-08 09:05 -29.88674 -52.04626 22429 ft 476 kts 85°
2026-05-08 09:05 -29.88741 -52.00871 22084 ft 462 kts 85°
2026-05-08 09:06 -29.88804 -51.97183 21383 ft 458 kts 85°
2026-05-08 09:06 -29.88869 -51.93543 20777 ft 452 kts 85°
2026-05-08 09:06 -29.88932 -51.89942 20164 ft 447 kts 85°
2026-05-08 09:06 -29.88996 -51.86386 19565 ft 442 kts 85°
2026-05-08 09:07 -29.89097 -51.82870 18979 ft 439 kts 92°
2026-05-08 09:07 -29.89920 -51.79474 18386 ft 443 kts 115°
2026-05-08 09:07 -29.91487 -51.76441 17815 ft 438 kts 121°
2026-05-08 09:07 -29.93023 -51.73430 17226 ft 433 kts 118°
2026-05-08 09:08 -29.94521 -51.70438 16634 ft 428 kts 118°
2026-05-08 09:08 -29.95990 -51.67467 16080 ft 424 kts 118°
2026-05-08 09:08 -29.97431 -51.64520 15519 ft 420 kts 117°
2026-05-08 09:08 -29.98830 -51.61609 14965 ft 417 kts 116°
2026-05-08 09:09 -30.00235 -51.58690 14422 ft 414 kts 116°
2026-05-08 09:09 -30.01628 -51.55789 13858 ft 413 kts 116°
2026-05-08 09:09 -30.03013 -51.52899 13283 ft 410 kts 116°
2026-05-08 09:09 -30.04367 -51.50073 12791 ft 405 kts 116°
2026-05-08 09:10 -30.05739 -51.47206 12235 ft 401 kts 116°
2026-05-08 09:10 -30.07065 -51.44432 11721 ft 398 kts 116°
2026-05-08 09:10 -30.08305 -51.41602 11178 ft 391 kts 105°
2026-05-08 09:10 -30.08749 -51.38595 10707 ft 371 kts 83°
2026-05-08 09:11 -30.08692 -51.35646 10219 ft 366 kts 82°
2026-05-08 09:11 -30.08689 -51.32712 9724 ft 365 kts 83°
2026-05-08 09:11 -30.08712 -51.29801 9218 ft 361 kts 84°
2026-05-08 09:11 -30.08749 -51.26927 8767 ft 355 kts 84°
2026-05-08 09:12 -30.08793 -51.24089 8297 ft 351 kts 85°
2026-05-08 09:12 -30.08839 -51.21282 7844 ft 348 kts 85°
2026-05-08 09:12 -30.08892 -51.18494 7377 ft 346 kts 85°
2026-05-08 09:12 -30.08924 -51.16661 7060 ft 345 kts 85°
2026-05-08 09:13 -30.08972 -51.13903 6604 ft 342 kts 86°
2026-05-08 09:13 -30.09019 -51.11175 6168 ft 338 kts 86°
2026-05-08 09:13 -30.09069 -51.08506 5962 ft 327 kts 86°
2026-05-08 09:13 -30.09113 -51.05893 5496 ft 322 kts 86°
2026-05-08 09:14 -30.09159 -51.03362 5043 ft 308 kts 87°
2026-05-08 09:14 -30.09203 -51.00934 4659 ft 300 kts 88°
2026-05-08 09:14 -30.09234 -50.98531 4307 ft 298 kts 88°
2026-05-08 09:14 -30.09057 -50.96193 3867 ft 286 kts 69°
2026-05-08 09:15 -30.08053 -50.94363 3488 ft 259 kts 33°
2026-05-08 09:15 -30.06534 -50.93602 3197 ft 224 kts 355°
2026-05-08 09:15 -30.05160 -50.93965 2990 ft 192 kts 327°
2026-05-08 09:15 -30.04044 -50.94625 2820 ft 173 kts 324°
2026-05-08 09:16 -30.02988 -50.95193 2606 ft 161 kts 326°
2026-05-08 09:16 -30.01995 -50.95680 2457 ft 148 kts 327°
2026-05-08 09:16 -30.01113 -50.96170 2267 ft 136 kts 314°
2026-05-08 09:16 -30.00484 -50.96876 2108 ft 118 kts 298°
2026-05-08 09:17 -30.00117 -50.97653 2122 ft 107 kts 286°
2026-05-08 09:17 -29.99942 -50.98487 2131 ft 108 kts 274°
2026-05-08 09:17 -29.99907 -50.99369 2061 ft 111 kts 272°
2026-05-08 09:17 -29.99858 -51.00256 1977 ft 111 kts 273°
2026-05-08 09:18 -29.99805 -51.01147 1913 ft 110 kts 272°
2026-05-08 09:18 -29.99782 -51.02027 1859 ft 110 kts 271°
2026-05-08 09:18 -29.99758 -51.02916 1781 ft 111 kts 271°
2026-05-08 09:18 -29.99737 -51.03809 1718 ft 111 kts 271°
2026-05-08 09:19 -29.99716 -51.04722 1651 ft 116 kts 271°
2026-05-08 09:19 -29.99701 -51.05628 1571 ft 111 kts 273°
2026-05-08 09:19 -29.99674 -51.06522 1521 ft 113 kts 272°
2026-05-08 09:19 -29.99647 -51.07439 1368 ft 116 kts 271°
2026-05-08 09:20 -29.99630 -51.08365 1211 ft 118 kts 270°
2026-05-08 09:20 -29.99616 -51.09314 1023 ft 118 kts 271°
2026-05-08 09:20 -29.99600 -51.10260 874 ft 115 kts 273°
2026-05-08 09:20 -29.99587 -51.11181 713 ft 117 kts 273°
2026-05-08 09:21 -29.99566 -51.12139 530 ft 124 kts 275°
2026-05-08 09:21 -29.99556 -51.13137 358 ft 124 kts 274°
2026-05-08 09:22 -29.99454 -51.17522 19 ft 42 kts 271°
2026-05-08 09:23 -29.99450 -51.17781 21 ft 24 kts 271°
2026-05-08 09:23 -29.99445 -51.17987 20 ft 26 kts 271°
2026-05-08 09:23 -29.99438 -51.18199 20 ft 22 kts 274°
2026-05-08 09:23 -29.99323 -51.18212 18 ft 21 kts 27°
2026-05-08 09:24 -29.99224 -51.18106 18 ft 20 kts 73°
2026-05-08 09:24 -29.99158 -51.18085 18 ft 11 kts 292°
2026-05-08 09:24 -29.99137 -51.18137 18 ft 1 kts 296°
2026-05-08 09:24 -29.99137 -51.18138 18 ft 0 kts 295°